Regional Weather Roundup
Issued by NWS Charleston, WV

Home | Current Version | Previous Version | Graphics & Text | Print | Product List | Glossary On
Versions: 1 2 3 4 5 6 7 8 9 10 11 12 13 14 15 16 17 18 19 20 21 22 23 24 25 26 27 28
000
ASUS41 KRLX 241010
RWRRLX
West Virginia Regional Weather Roundup
National Weather Service Charleston WV
600 AM EDT SUN JUL 24 2016

Note: "fair" indicates few or no clouds below 12,000 feet with no
significant weather and/or obstructions to visibility.

WVZ003-241100-
Northern Panhandle of West Virginia

CITY           SKY/WX    TMP DP  RH WIND       PRES   REMARKS
WHEELING         N/A     72  67  84 E5        30.03R
$$

WVZ009-241100-
Northwest West Virginia

CITY           SKY/WX    TMP DP  RH WIND       PRES   REMARKS
PARKERSBURG      N/A     72  70  93 CALM      30.04R FOG
$$

WVZ006-241100-
Western West Virginia

CITY           SKY/WX    TMP DP  RH WIND       PRES   REMARKS
HUNTINGTON       N/A     73  71  93 SE3       30.01S FOG
$$

WVZ015-241100-
West Central West Virginia

CITY           SKY/WX    TMP DP  RH WIND       PRES   REMARKS
CHARLESTON     FOG       71  70  96 CALM      30.03S VSB 1
$$

WVZ022-031-241100-
North Central West Virginia

CITY           SKY/WX    TMP DP  RH WIND       PRES   REMARKS
CLARKSBURG     MOCLDY    72  70  93 CALM      30.04R
MORGANTOWN       N/A     72  69  90 CALM      30.05R FOG
$$

WVZ025-035-042-045-241100-
Southern West Virginia

CITY           SKY/WX    TMP DP  RH WIND       PRES   REMARKS
BECKLEY          N/A     68  66  93 CALM      30.13R
LOGAN            N/A     72  72 100 CALM      30.07R
BLUEFIELD        N/A     70  66  87 CALM      30.16R
LEWISBURG        N/A    N/A N/A N/A MISG        N/A
$$

WVZ047-241100-
Northern Mountains of West Virginia

CITY           SKY/WX    TMP DP  RH WIND       PRES   REMARKS
ELKINS         FOG       65  63  93 CALM      30.11R VSB 3/4
$$

WVZ052-241100-
Eastern Panhandle of West Virginia

CITY           SKY/WX    TMP DP  RH WIND       PRES   REMARKS
MARTINSBURG      N/A     70  68  93 CALM      30.00R
PETERSBURG       N/A     68  67  98 CALM      30.04R FOG
$$




USA.gov is the U.S. government's official web portal to all federal, state and local government web resources and services.